COSMOS 1275 DEB, 13796

Orbit data source: Space-Track

COSMOS 1275 DEB, 13796 is space debris in LEO originally from a launch on Thu, 04 Jun 1981 UTC launched from the Plesetsk Missile And Space Complex (PKMTR). Debris objects in space refer to the collection of defunct objects orbiting the Earth. Examples of debris include non-operational satellites, rocket bodies, and fragments generated from explosions, collisions, or faulty payload assembly.

Loading next visibility...
Identifier
13796, 1981-053GQ
Orbit
LEO
Country
Flag of CISCIS
Related business
Manufacturer
Unknown
Mission
Spacecraft
Bus & Motor
Unknown
Mass
Unknown
Launch date (UTC)
1981-06-04 (44 years ago)
Launch vehicle
Unknown
Launch site
Plesetsk Missile And Space Complex (PKMTR)
Object type
Payload
Rocket body
Debris
Shape & HBR
Unknown shape, 0.1 m
Radar Cross Section
Small (<0.1 m²)

Expand to show TLE details & history
Last TLE update: 17 hours ago

TLE from 17 hours ago
0 COSMOS 1275 DEB
1 13796U 81053GQ  25298.04988322  .00001656  00000-0  14247-2 0  9993
2 13796  83.0220 317.0438 0112878  71.4039 309.4407 13.83215928150308
Epoch: 2025-10-25T01:11Z
TLE epoch observation values (Epoch: 2025-10-25T01:11:49.910Z)
Latitude
19.68504°
Longitude
-92.10371°
Altitude
902.968 km
Speed
7.428 km/s
True Right ascension
21h 18m 09s
True Declination
19° 34' 42"
Sunlit
Object was in daylight at epoch
Visualization orbit readout
Latitude
Unknown
Longitude
Unknown
Altitude
Unknown
Speed
Unknown
Apparent Right ascension
Unknown
Apparent Declination
Unknown
Sunlit
N/A
Visualization observer readout
Local Sidereal Time
13:04:58
Azimuth
Unknown
Elevation
Unknown
Doppler factor
Unknown
Orbital elements
Apogee altitude
1,032.351 km
Perigee altitude
866.922 km
Semi-major axis
7,327.773 km
Eccentricity
0.01129
Inclination
83.022°
RAAN
317.0438°
Arg. of periapsis
71.4039°
True anomaly
308.43278°
Mean anomaly
309.4407°
Eccentric anomaly
308.93764°
Mean motion
3.46007 °/min
Orbital period
104.04 mins
BSTAR
0.0014247
Loading maneuver chart data...
Computing Atmospheric mass density...

Documentation

Showing up to 5 results
|